TimeAKST,TemperatureF,Dew PointF,Humidity,Sea Level PressureIn,VisibilityMPH,Wind Direction,Wind SpeedMPH,Gust SpeedMPH,PrecipitationIn,Events,Conditions,WindDirDegrees,DateUTC
12:10 AM,1.0,-4.0,79,29.13,5.0,NW,5.8,-,N/A,,Haze,310,2014-01-12 09:10:00
12:53 AM,-0.0,-5.1,79,29.29,5.0,NNW,4.6,-,N/A,,Haze,330,2014-01-12 09:53:00
1:25 AM,-0.0,-5.1,79,29.13,5.0,NW,4.6,-,N/A,,Haze,320,2014-01-12 10:25:00
1:53 AM,-0.9,-5.1,83,29.29,5.0,Calm,Calm,-,N/A,,Overcast,0,2014-01-12 10:53:00
3:11 AM,-0.0,-5.1,79,29.13,5.0,NW,5.8,-,N/A,,Haze,310,2014-01-12 12:11:00
3:53 AM,-0.0,-5.1,79,29.29,5.0,NW,3.5,-,N/A,,Haze,320,2014-01-12 12:53:00
4:53 AM,-0.0,-5.1,79,29.28,5.0,NW,4.6,-,N/A,,Haze,310,2014-01-12 13:53:00
5:53 AM,-0.0,-5.1,79,29.28,5.0,Calm,Calm,-,N/A,,Haze,0,2014-01-12 14:53:00
6:53 AM,-0.9,-6.0,79,29.29,5.0,WNW,3.5,-,N/A,,Haze,290,2014-01-12 15:53:00
7:53 AM,-8.0,-11.0,86,29.29,5.0,Calm,Calm,-,N/A,,Scattered Clouds,0,2014-01-12 16:53:00
8:53 AM,-11.0,-16.1,78,29.30,5.0,NW,3.5,-,N/A,,Haze,320,2014-01-12 17:53:00
9:53 AM,-13.0,-18.0,78,29.32,3.0,Calm,Calm,-,N/A,,Haze,0,2014-01-12 18:53:00
10:53 AM,-13.0,-18.0,78,29.33,3.0,Calm,Calm,-,N/A,,Haze,0,2014-01-12 19:53:00
11:53 AM,-11.0,-16.1,78,29.32,4.0,Calm,Calm,-,N/A,,Haze,0,2014-01-12 20:53:00
12:53 PM,-8.0,-13.0,79,29.33,3.0,Calm,Calm,-,N/A,,Haze,0,2014-01-12 21:53:00
1:53 PM,-4.0,-9.0,79,29.33,3.0,Calm,Calm,-,N/A,,Haze,0,2014-01-12 22:53:00
2:53 PM,-2.9,-7.1,82,29.33,3.0,Calm,Calm,-,N/A,,Overcast,0,2014-01-12 23:53:00
3:53 PM,-2.0,-6.0,83,29.34,3.0,Calm,Calm,-,N/A,,Overcast,0,2014-01-13 00:53:00
4:51 PM,-0.4,-5.8,78,29.17,5.0,Calm,Calm,-,N/A,,Haze,0,2014-01-13 01:51:00
4:53 PM,-0.9,-6.0,79,29.34,5.0,Calm,Calm,-,N/A,,Haze,0,2014-01-13 01:53:00
5:53 PM,-0.9,-6.0,79,29.35,5.0,Calm,Calm,-,N/A,,Haze,0,2014-01-13 02:53:00
6:53 PM,-0.9,-5.1,83,29.37,5.0,Calm,Calm,-,N/A,,Overcast,0,2014-01-13 03:53:00
7:01 PM,-0.0,-5.1,79,29.20,5.0,Calm,Calm,-,N/A,,Haze,0,2014-01-13 04:01:00
7:53 PM,-0.9,-5.1,83,29.40,5.0,Calm,Calm,-,N/A,,Overcast,0,2014-01-13 04:53:00
8:07 PM,-0.9,-5.1,83,29.22,5.0,Calm,Calm,-,N/A,,Overcast,0,2014-01-13 05:07:00
8:53 PM,-0.0,-5.1,79,29.43,5.0,Calm,Calm,-,N/A,,Haze,0,2014-01-13 05:53:00
9:53 PM,-0.9,-5.1,83,29.46,5.0,Calm,Calm,-,N/A,,Overcast,0,2014-01-13 06:53:00
10:53 PM,-0.0,-5.1,79,29.49,5.0,Calm,Calm,-,N/A,,Haze,0,2014-01-13 07:53:00
11:53 PM,-2.0,-6.0,83,29.52,5.0,Calm,Calm,-,N/A,,Overcast,0,2014-01-13 08:53:00